"SCET";"TARGET";"ELECTRON_DENSITY";"ERROR_FLAG";"ELECTRON_DENSITY_ERROR";"FREQ_FCE";"MEASURED_VALUE";"MEASURED_ITEM";"FREQ_PLASMA";"FREQ_UPPER_HYBRID";"FREQ_R_EQUALS_ZERO";"FREQ_L_EQUALS_ZERO";"ORBIT_NUMBER";"SATURN_RADIUS";"SATURN_IAU_LONGITUDE";"SATURN_SLS4_S_LONGITUDE";"SATURN_SLS4_N_LONGITUDE";"SATURN_SLS5_S_LONGITUDE";"SATURN_SLS5_N_LONGITUDE";"SATURN_LOCAL_TIME";"SATURN_KRONOGRAPHIC_LATITUDE";"SATURN_MAGNETIC_LATITUDE";"SATURN_L";"SATURN_L_OFFSET";"SATURN_SOLAR_EQUATORIAL_X";"SATURN_SOLAR_EQUATORIAL_Y";"SATURN_SOLAR_EQUATORIAL_Z";"SATURN_ALTITUDE";"ENCELADUS_ENCOUNTER_NUMBER";"ENCELADUS_RADIUS";"ENCELADUS_COROTATIONAL_X";"ENCELADUS_COROTATIONAL_Y";"ENCELADUS_COROTATIONAL_Z";"ENCELADUS_TRUE_ANOMALY";"ENCELADUS_PERIAPSIS_TIME";"JUPITER_RADIUS";"JUPITER_SYSTEMIII_LONGITUDE";"JUPITER_MAGNETIC_LATITUDE";"JUPITER_MAGNETIC_LOCAL_TIME";"JUPITER_L";"IO_PHASE";"EARTH_RADIUS";"EARTH_MAGNETIC_LATITUDE";"EARTH_LOCAL_TIME";"EARTH_L"
"[UTC]";"[0=Saturn, 1=Enceladus, 2=Jupiter, 3=Earth]";"[cm-3]";"[0=automated, 1=manual]";"[normalized density error]";"[Hz]";"[Hz]";"[0=upper hybrid frequency, 1=plasma frequency cutoff]";"[Hz]";"[Hz]";"[Hz]";"[Hz}";"[0, A, B, C, 3, 4, ... , 292, 293]";"[Rs where 1Rs=60268km]";"[degrees]";"[degrees]";"[degrees]";"[degrees]";"[degrees]";"[hours]";"[degrees]";"[degrees where offset=2293km north]";"[Rs where 1Rs=60268km]";"[Rs where 1Rs=60268km and offset=2293km north]";"[Rs where 1Rs=60268km]";"[Rs where 1Rs=60268km]";"[Rs where 1Rs=60268km]";"[km where ellipsoid a,b=60268km and c=54364km]";"[E0, E1, E2, ... , E21, E22]";"[Renc where 1Renc=252.1km]";"[Renc where 1Renc=252.1km]";"[Renc where 1Renc=252.1km]";"[Renc where 1Renc=252.1km]";"[degrees]";"[UTC]";"[Rj where 1Rj=71492km]";"[degrees]";"[degrees using JRM09 model]";"[hours using JRM09 model]";"[Rj where 1Rj=71492km]";"[degrees]";"[Re where 1Re=6378.1366km]";"[degrees]";"[hours]";"[Re where 1Re=6378.1366km]"
2011-07-11T00:00:02.982Z;0;2.2990e+01;0;     0.137;  1672.888;  43086.809; 0;  43054.320;  43086.809;  43898.891;  42226.000;150;   6.526; 355.136;;; 111.233;  83.233;   8.327;  -0.307;  -0.640;   6.526;   6.519;   3.735;  -5.351;  -0.035;;;;;;;;;;;;;;;;;;
2011-07-11T00:00:50.981Z;0;2.2840e+01;0;     0.169;  1672.888;  42944.410; 0;  42911.812;  42944.410;  43756.410;  42083.523;150;   6.532; 355.513;;; 111.608;  83.611;   8.332;  -0.306;  -0.640;   6.532;   6.525;   3.745;  -5.351;  -0.035;;;;;;;;;;;;;;;;;;
2011-07-11T00:01:06.981Z;0;1.9200e+01;0;     0.173;  1689.688;  39386.785; 0;  39350.523;  39386.785;  40204.438;  38514.750;150;   6.534; 355.639;;; 111.733;  83.737;   8.334;  -0.306;  -0.640;   6.534;   6.527;   3.749;  -5.351;  -0.035;;;;;;;;;;;;;;;;;;
2011-07-11T00:01:22.981Z;0;2.1090e+01;0;     0.191;  1689.688;  41276.816; 0;  41242.219;  41276.816;  42095.715;  40406.027;150;   6.536; 355.765;;; 111.858;  83.863;   8.336;  -0.306;  -0.640;   6.536;   6.530;   3.752;  -5.351;  -0.035;;;;;;;;;;;;;;;;;;
2011-07-11T00:01:38.981Z;0;2.3250e+01;0;     0.159;  1689.688;  43333.000; 0;  43300.043;  43333.000;  44153.129;  42463.441;150;   6.538; 355.891;;; 111.983;  83.989;   8.337;  -0.306;  -0.639;   6.538;   6.532;   3.756;  -5.351;  -0.035;;;;;;;;;;;;;;;;;;
2011-07-11T00:02:11.356Z;0;2.2870e+01;0;     0.148;  1675.996;  42978.961; 0;  42946.270;  42978.961;  43792.441;  42116.445;150;   6.542; 356.145;;; 112.235;  84.244;   8.341;  -0.306;  -0.639;   6.542;   6.536;   3.762;  -5.352;  -0.035;;;;;;;;;;;;;;;;;;
2011-07-11T00:02:26.981Z;0;2.3570e+01;0;     0.146;  1675.996;  43626.973; 0;  43594.770;  43626.973;  44440.820;  42764.824;150;   6.544; 356.268;;; 112.358;  84.367;   8.342;  -0.306;  -0.639;   6.544;   6.538;   3.766;  -5.352;  -0.035;;;;;;;;;;;;;;;;;;
2011-07-11T00:02:42.981Z;0;2.5710e+01;0;     0.122;  1675.996;  45561.461; 0;  45530.625;  45561.461;  46376.332;  44700.336;150;   6.546; 356.394;;; 112.483;  84.493;   8.344;  -0.306;  -0.639;   6.546;   6.540;   3.769;  -5.352;  -0.035;;;;;;;;;;;;;;;;;;
2011-07-11T00:02:58.981Z;0;2.5230e+01;0;     0.122;  1675.996;  45137.020; 0;  45105.895;  45137.020;  45951.676;  44275.680;150;   6.548; 356.520;;; 112.608;  84.618;   8.345;  -0.306;  -0.638;   6.548;   6.542;   3.773;  -5.352;  -0.035;;;;;;;;;;;;;;;;;;
2011-07-11T00:03:14.980Z;0;2.6060e+01;0;     0.125;  1664.096;  45870.895; 0;  45840.699;  45870.895;  46680.297;  45016.203;150;   6.550; 356.646;;; 112.733;  84.744;   8.347;  -0.305;  -0.638;   6.550;   6.544;   3.776;  -5.352;  -0.035;;;;;;;;;;;;;;;;;;
2011-07-11T00:03:30.980Z;0;2.7180e+01;0;     0.134;  1664.096;  46847.914; 0;  46818.348;  46847.914;  47657.789;  45993.695;150;   6.552; 356.772;;; 112.858;  84.869;   8.349;  -0.305;  -0.638;   6.552;   6.546;   3.780;  -5.352;  -0.035;;;;;;;;;;;;;;;;;;
2011-07-11T00:03:46.980Z;0;2.1040e+01;0;     0.162;  1664.096;  41221.977; 0;  41188.375;  41221.977;  42028.824;  40364.730;150;   6.554; 356.897;;; 112.983;  84.995;   8.350;  -0.305;  -0.638;   6.554;   6.548;   3.783;  -5.352;  -0.035;;;;;;;;;;;;;;;;;;
2011-07-11T00:04:02.980Z;0;2.5030e+01;0;     0.144;  1669.332;  44957.113; 0;  44926.109;  44957.113;  45768.527;  44099.195;150;   6.556; 357.023;;; 113.108;  85.120;   8.352;  -0.305;  -0.638;   6.556;   6.550;   3.786;  -5.352;  -0.035;;;;;;;;;;;;;;;;;;
2011-07-11T00:04:18.980Z;0;2.4880e+01;0;     0.136;  1669.332;  44823.957; 0;  44792.863;  44823.957;  45635.305;  43965.973;150;   6.558; 357.149;;; 113.233;  85.246;   8.353;  -0.305;  -0.637;   6.558;   6.552;   3.790;  -5.352;  -0.035;;;;;;;;;;;;;;;;;;
2011-07-11T00:04:34.980Z;0;2.4960e+01;0;     0.114;  1669.332;  44891.770; 0;  44860.723;  44891.770;  45703.152;  44033.820;150;   6.560; 357.275;;; 113.358;  85.371;   8.355;  -0.305;  -0.637;   6.560;   6.554;   3.793;  -5.352;  -0.035;;;;;;;;;;;;;;;;;;
2011-07-11T00:04:50.980Z;0;2.5390e+01;0;     0.111;  1669.332;  45281.184; 0;  45250.402;  45281.184;  46092.766;  44423.434;150;   6.562; 357.401;;; 113.484;  85.496;   8.357;  -0.305;  -0.637;   6.562;   6.556;   3.797;  -5.352;  -0.035;;;;;;;;;;;;;;;;;;
2011-07-11T00:05:06.980Z;0;2.6930e+01;0;     0.119;  1647.296;  46625.836; 0;  46596.727;  46625.836;  47427.652;  45780.359;150;   6.564; 357.527;;; 113.609;  85.621;   8.358;  -0.305;  -0.637;   6.564;   6.558;   3.800;  -5.352;  -0.035;;;;;;;;;;;;;;;;;;
2011-07-11T00:05:22.980Z;0;2.6870e+01;0;     0.134;  1647.296;  46581.371; 0;  46552.234;  46581.371;  47383.168;  45735.871;150;   6.566; 357.653;;; 113.734;  85.746;   8.360;  -0.305;  -0.637;   6.566;   6.560;   3.803;  -5.352;  -0.035;;;;;;;;;;;;;;;;;;
2011-07-11T00:05:38.980Z;0;2.2680e+01;0;     0.142;  1647.296;  42793.676; 0;  42761.957;  42793.676;  43593.539;  41946.242;150;   6.568; 357.779;;; 113.859;  85.872;   8.361;  -0.305;  -0.637;   6.568;   6.562;   3.807;  -5.352;  -0.035;;;;;;;;;;;;;;;;;;
2011-07-11T00:05:54.979Z;0;2.2570e+01;0;     0.171;  1647.296;  42693.906; 0;  42662.113;  42693.906;  43493.715;  41846.418;150;   6.570; 357.905;;; 113.984;  85.997;   8.363;  -0.305;  -0.636;   6.570;   6.564;   3.810;  -5.352;  -0.035;;;;;;;;;;;;;;;;;;
2011-07-11T00:06:10.979Z;0;2.2990e+01;0;     0.142;  1657.544;  43092.566; 0;  43060.676;  43092.566;  43897.422;  42239.879;150;   6.572; 358.031;;; 114.110;  86.122;   8.365;  -0.305;  -0.636;   6.572;   6.566;   3.814;  -5.352;  -0.035;;;;;;;;;;;;;;;;;;
2011-07-11T00:06:26.979Z;0;2.4650e+01;0;     0.129;  1657.544;  44612.062; 0;  44581.258;  44612.062;  45417.734;  43760.191;150;   6.574; 358.157;;; 114.235;  86.246;   8.366;  -0.304;  -0.636;   6.574;   6.568;   3.817;  -5.352;  -0.035;;;;;;;;;;;;;;;;;;
2011-07-11T00:06:42.979Z;0;2.4620e+01;0;     0.143;  1657.544;  44585.812; 0;  44554.992;  44585.812;  45391.469;  43733.926;150;   6.576; 358.283;;; 114.360;  86.371;   8.368;  -0.304;  -0.636;   6.576;   6.570;   3.821;  -5.352;  -0.035;;;;;;;;;;;;;;;;;;
2011-07-11T00:06:58.979Z;0;2.5960e+01;0;     0.132;  1657.544;  45780.523; 0;  45750.508;  45780.523;  46586.785;  44929.242;150;   6.578; 358.410;;; 114.486;  86.496;   8.369;  -0.304;  -0.636;   6.579;   6.572;   3.824;  -5.352;  -0.035;;;;;;;;;;;;;;;;;;
2011-07-11T00:07:14.979Z;0;2.0930e+01;0;     0.148;  1627.612;  41114.609; 0;  41082.379;  41114.609;  41904.246;  40276.633;150;   6.580; 358.536;;; 114.611;  86.621;   8.371;  -0.304;  -0.635;   6.581;   6.574;   3.827;  -5.352;  -0.035;;;;;;;;;;;;;;;;;;
2011-07-11T00:07:30.979Z;0;2.3120e+01;0;     0.148;  1627.612;  43211.387; 0;  43180.723;  43211.387;  44002.195;  42374.586;150;   6.582; 358.662;;; 114.736;  86.746;   8.373;  -0.304;  -0.635;   6.583;   6.576;   3.831;  -5.352;  -0.035;;;;;;;;;;;;;;;;;;
2011-07-11T00:07:46.979Z;0;2.5350e+01;0;     0.125;  1627.612;  45240.371; 0;  45211.082;  45240.371;  46032.215;  44404.602;150;   6.584; 358.788;;; 114.862;  86.870;   8.374;  -0.304;  -0.635;   6.585;   6.578;   3.834;  -5.352;  -0.035;;;;;;;;;;;;;;;;;;
2011-07-11T00:08:02.979Z;0;2.3080e+01;0;     0.125;  1619.996;  43169.352; 0;  43138.945;  43169.352;  43956.547;  42336.551;150;   6.586; 358.914;;; 114.987;  86.995;   8.376;  -0.304;  -0.635;   6.587;   6.580;   3.838;  -5.353;  -0.035;;;;;;;;;;;;;;;;;;
2011-07-11T00:08:18.979Z;0;2.1660e+01;0;     0.164;  1619.996;  41826.867; 0;  41795.484;  41826.867;  42613.328;  40993.332;150;   6.588; 359.040;;; 115.112;  87.119;   8.377;  -0.304;  -0.635;   6.589;   6.582;   3.841;  -5.353;  -0.035;;;;;;;;;;;;;;;;;;
2011-07-11T00:08:34.978Z;0;2.4950e+01;0;     0.127;  1619.996;  44886.336; 0;  44857.094;  44886.336;  45674.402;  44054.406;150;   6.590; 359.166;;; 115.238;  87.244;   8.379;  -0.304;  -0.635;   6.591;   6.584;   3.845;  -5.353;  -0.035;;;;;;;;;;;;;;;;;;
2011-07-11T00:08:50.978Z;0;2.5270e+01;0;     0.132;  1619.996;  45169.250; 0;  45140.191;  45169.250;  45957.453;  44337.457;150;   6.592; 359.293;;; 115.363;  87.368;   8.381;  -0.304;  -0.634;   6.593;   6.586;   3.848;  -5.353;  -0.035;;;;;;;;;;;;;;;;;;
2011-07-11T00:09:06.978Z;0;2.3140e+01;0;     0.164;  1627.948;  43223.777; 0;  43193.109;  43223.777;  44014.754;  42386.805;150;   6.595; 359.419;;; 115.488;  87.493;   8.382;  -0.304;  -0.634;   6.595;   6.588;   3.851;  -5.353;  -0.035;;;;;;;;;;;;;;;;;;
2011-07-11T00:09:22.978Z;0;2.1740e+01;0;     0.156;  1627.948;  41904.012; 0;  41872.379;  41904.012;  42694.262;  41066.312;150;   6.597; 359.545;;; 115.614;  87.617;   8.384;  -0.304;  -0.634;   6.597;   6.590;   3.855;  -5.353;  -0.035;;;;;;;;;;;;;;;;;;
2011-07-11T00:09:38.978Z;0;2.3360e+01;0;     0.141;  1627.948;  43431.754; 0;  43401.234;  43431.754;  44222.840;  42594.891;150;   6.599; 359.671;;; 115.739;  87.741;   8.385;  -0.303;  -0.634;   6.599;   6.592;   3.858;  -5.353;  -0.035;;;;;;;;;;;;;;;;;;
2011-07-11T00:09:54.978Z;0;2.1180e+01;0;     0.160;  1627.948;  41357.105; 0;  41325.051;  41357.105;  42147.043;  40519.094;150;   6.601; 359.798;;; 115.865;  87.865;   8.387;  -0.303;  -0.634;   6.601;   6.594;   3.862;  -5.353;  -0.035;;;;;;;;;;;;;;;;;;
2011-07-11T00:10:10.978Z;0;2.0900e+01;0;     0.163;  1632.260;  41088.203; 0;  41055.770;  41088.203;  41880.012;  40247.750;150;   6.603; 359.924;;; 115.990;  87.991;   8.389;  -0.303;  -0.633;   6.603;   6.596;   3.865;  -5.353;  -0.035;;;;;;;;;;;;;;;;;;
2011-07-11T00:10:26.978Z;0;2.0520e+01;0;     0.179;  1632.260;  40707.699; 0;  40674.961;  40707.699;  41499.277;  39867.020;150;   6.605;   0.050;;; 116.116;  88.118;   8.390;  -0.303;  -0.633;   6.605;   6.598;   3.868;  -5.353;  -0.035;;;;;;;;;;;;;;;;;;
2011-07-11T00:10:42.978Z;0;2.0340e+01;0;     0.171;  1632.260;  40530.859; 0;  40497.980;  40530.859;  41322.332;  39690.070;150;   6.607;   0.176;;; 116.241;  88.245;   8.392;  -0.303;  -0.633;   6.607;   6.600;   3.872;  -5.353;  -0.035;;;;;;;;;;;;;;;;;;
2011-07-11T00:10:58.978Z;0;1.9440e+01;0;     0.155;  1632.260;  39627.156; 0;  39593.523;  39627.156;  40418.066;  38785.805;150;   6.609;   0.303;;; 116.367;  88.372;   8.393;  -0.303;  -0.633;   6.609;   6.602;   3.875;  -5.353;  -0.035;;;;;;;;;;;;;;;;;;
2011-07-11T00:11:14.977Z;0;2.1390e+01;0;     0.149;  1604.988;  41563.938; 0;  41532.938;  41563.938;  42343.184;  40738.195;150;   6.611;   0.429;;; 116.492;  88.499;   8.395;  -0.303;  -0.633;   6.611;   6.604;   3.879;  -5.353;  -0.035;;;;;;;;;;;;;;;;;;
2011-07-11T00:11:30.977Z;0;2.1090e+01;0;     0.149;  1604.988;  41268.562; 0;  41237.340;  41268.562;  42047.641;  40442.656;150;   6.613;   0.555;;; 116.618;  88.627;   8.397;  -0.303;  -0.632;   6.613;   6.606;   3.882;  -5.353;  -0.035;;;;;;;;;;;;;;;;;;
2011-07-11T00:11:46.977Z;0;2.0430e+01;0;     0.167;  1604.988;  40621.070; 0;  40589.352;  40621.070;  41399.777;  39794.789;150;   6.615;   0.682;;; 116.743;  88.754;   8.398;  -0.303;  -0.632;   6.615;   6.608;   3.886;  -5.353;  -0.035;;;;;;;;;;;;;;;;;;
2011-07-11T00:12:18.977Z;0;2.2490e+01;0;     0.172;  1598.296;  42615.980; 0;  42586.000;  42615.980;  43392.645;  41794.348;150;   6.619;   0.934;;; 116.995;  89.009;   8.401;  -0.303;  -0.632;   6.619;   6.612;   3.892;  -5.353;  -0.035;;;;;;;;;;;;;;;;;;
2011-07-11T00:12:34.977Z;0;2.2220e+01;0;     0.156;  1598.296;  42358.992; 0;  42328.828;  42358.992;  43135.520;  41537.223;150;   6.621;   1.061;;; 117.120;  89.136;   8.403;  -0.303;  -0.632;   6.621;   6.614;   3.896;  -5.353;  -0.035;;;;;;;;;;;;;;;;;;
2011-07-11T00:12:50.977Z;0;2.0800e+01;0;     0.168;  1598.296;  40990.434; 0;  40959.262;  40990.434;  41766.203;  40167.910;150;   6.623;   1.187;;; 117.246;  89.264;   8.404;  -0.302;  -0.632;   6.623;   6.616;   3.899;  -5.353;  -0.035;;;;;;;;;;;;;;;;;;
2011-07-11T00:13:06.977Z;0;2.1620e+01;0;     0.149;  1592.220;  41785.188; 0;  41754.840;  41785.188;  42558.539;  40966.320;150;   6.625;   1.314;;; 117.371;  89.392;   8.406;  -0.302;  -0.631;   6.625;   6.618;   3.903;  -5.353;  -0.035;;;;;;;;;;;;;;;;;;
2011-07-11T00:13:22.977Z;0;2.0570e+01;0;     0.161;  1592.220;  40760.578; 0;  40729.469;  40760.578;  41533.359;  39941.137;150;   6.627;   1.440;;; 117.497;  89.520;   8.408;  -0.302;  -0.631;   6.627;   6.620;   3.906;  -5.353;  -0.035;;;;;;;;;;;;;;;;;;
2011-07-11T00:13:38.977Z;0;2.1170e+01;0;     0.161;  1592.220;  41352.602; 0;  41321.938;  41352.602;  42125.715;  40533.496;150;   6.629;   1.567;;; 117.623;  89.648;   8.409;  -0.302;  -0.631;   6.629;   6.622;   3.909;  -5.353;  -0.035;;;;;;;;;;;;;;;;;;
2011-07-11T00:13:54.976Z;0;2.1040e+01;0;     0.154;  1592.220;  41224.750; 0;  41193.992;  41224.750;  41997.793;  40405.574;150;   6.631;   1.693;;; 117.748;  89.776;   8.411;  -0.302;  -0.631;   6.631;   6.624;   3.913;  -5.353;  -0.035;;;;;;;;;;;;;;;;;;
2011-07-11T00:14:10.976Z;0;2.0900e+01;0;     0.157;  1596.420;  41081.246; 0;  41050.215;  41081.246;  41856.188;  40259.766;150;   6.633;   1.820;;; 117.874;  89.904;   8.412;  -0.302;  -0.631;   6.633;   6.626;   3.916;  -5.353;  -0.035;;;;;;;;;;;;;;;;;;
2011-07-11T00:14:42.976Z;0;2.1080e+01;0;     0.148;  1596.420;  41258.949; 0;  41228.055;  41258.949;  42033.988;  40437.570;150;   6.637;   2.073;;; 118.125;  90.160;   8.416;  -0.302;  -0.630;   6.637;   6.630;   3.923;  -5.353;  -0.035;;;;;;;;;;;;;;;;;;
2011-07-11T00:14:58.976Z;0;1.8680e+01;0;     0.173;  1596.420;  38846.348; 0;  38813.531;  38846.348;  39619.949;  38023.527;150;   6.639;   2.199;;; 118.251;  90.289;   8.417;  -0.302;  -0.630;   6.639;   6.633;   3.926;  -5.353;  -0.035;;;;;;;;;;;;;;;;;;
2011-07-11T00:15:14.976Z;0;1.8930e+01;0;     0.153;  1591.968;  39098.805; 0;  39066.383;  39098.805;  39870.473;  38278.504;150;   6.641;   2.326;;; 118.377;  90.417;   8.419;  -0.302;  -0.630;   6.641;   6.635;   3.930;  -5.353;  -0.035;;;;;;;;;;;;;;;;;;
2011-07-11T00:15:46.976Z;0;2.3050e+01;0;     0.181;  1591.968;  43141.297; 0;  43111.914;  43141.297;  43915.246;  42323.277;150;   6.645;   2.579;;; 118.629;  90.674;   8.422;  -0.302;  -0.630;   6.645;   6.639;   3.937;  -5.353;  -0.035;;;;;;;;;;;;;;;;;;
2011-07-11T00:16:02.976Z;0;2.3010e+01;0;     0.148;  1580.180;  43106.480; 0;  43077.508;  43106.480;  43874.844;  42294.664;150;   6.647;   2.705;;; 118.754;  90.803;   8.423;  -0.301;  -0.629;   6.647;   6.641;   3.940;  -5.353;  -0.035;;;;;;;;;;;;;;;;;;
2011-07-11T00:16:18.976Z;0;2.3220e+01;0;     0.130;  1580.180;  43300.230; 0;  43271.387;  43300.230;  44068.691;  42488.512;150;   6.649;   2.832;;; 118.880;  90.932;   8.425;  -0.301;  -0.629;   6.649;   6.643;   3.943;  -5.353;  -0.035;;;;;;;;;;;;;;;;;;
2011-07-11T00:16:34.975Z;0;2.1220e+01;0;     0.139;  1580.180;  41394.773; 0;  41364.602;  41394.773;  42162.238;  40582.059;150;   6.651;   2.959;;; 119.006;  91.060;   8.427;  -0.301;  -0.629;   6.651;   6.645;   3.947;  -5.353;  -0.035;;;;;;;;;;;;;;;;;;
2011-07-11T00:16:50.975Z;0;2.4800e+01;0;     0.111;  1580.180;  44749.996; 0;  44722.090;  44749.996;  45519.156;  43938.977;150;   6.653;   3.085;;; 119.132;  91.189;   8.428;  -0.301;  -0.629;   6.653;   6.647;   3.950;  -5.353;  -0.035;;;;;;;;;;;;;;;;;;
2011-07-11T00:17:06.975Z;0;1.9190e+01;0;     0.152;  1574.916;  39373.699; 0;  39342.188;  39373.699;  40137.527;  38562.609;150;   6.655;   3.212;;; 119.258;  91.318;   8.430;  -0.301;  -0.629;   6.655;   6.649;   3.954;  -5.353;  -0.035;;;;;;;;;;;;;;;;;;
2011-07-11T00:17:22.975Z;0;2.3250e+01;0;     0.128;  1574.916;  43329.383; 0;  43300.750;  43329.383;  44095.367;  42520.453;150;   6.657;   3.339;;; 119.383;  91.448;   8.431;  -0.301;  -0.628;   6.657;   6.651;   3.957;  -5.353;  -0.035;;;;;;;;;;;;;;;;;;
2011-07-11T00:17:38.975Z;0;2.1940e+01;0;     0.155;  1574.916;  42089.797; 0;  42060.320;  42089.797;  42855.148;  41280.234;150;   6.659;   3.465;;; 119.509;  91.577;   8.433;  -0.301;  -0.628;   6.659;   6.653;   3.960;  -5.353;  -0.035;;;;;;;;;;;;;;;;;;
2011-07-11T00:17:54.975Z;0;1.8980e+01;0;     0.164;  1574.916;  39154.902; 0;  39123.215;  39154.902;  39918.598;  38343.684;150;   6.661;   3.592;;; 119.635;  91.706;   8.434;  -0.301;  -0.628;   6.661;   6.655;   3.964;  -5.353;  -0.035;;;;;;;;;;;;;;;;;;
2011-07-11T00:18:10.975Z;0;1.9120e+01;0;     0.182;  1575.392;  39301.637; 0;  39270.051;  39301.637;  40065.645;  38490.254;150;   6.663;   3.719;;; 119.761;  91.836;   8.436;  -0.301;  -0.628;   6.664;   6.657;   3.967;  -5.353;  -0.035;;;;;;;;;;;;;;;;;;
2011-07-11T00:18:42.975Z;0;1.9250e+01;0;     0.158;  1575.392;  39435.059; 0;  39403.578;  39435.059;  40199.148;  38623.754;150;   6.667;   3.972;;; 120.013;  92.095;   8.439;  -0.301;  -0.628;   6.668;   6.661;   3.974;  -5.353;  -0.035;;;;;;;;;;;;;;;;;;
2011-07-11T00:18:58.974Z;0;1.8620e+01;0;     0.173;  1575.392;  38779.953; 0;  38747.941;  38779.953;  39543.641;  37968.250;150;   6.669;   4.099;;; 120.139;  92.224;   8.441;  -0.301;  -0.627;   6.670;   6.663;   3.977;  -5.353;  -0.035;;;;;;;;;;;;;;;;;;
2011-07-11T00:19:14.974Z;0;2.2820e+01;0;     0.140;  1559.656;  42924.609; 0;  42896.266;  42924.609;  43683.180;  42123.523;150;   6.671;   4.226;;; 120.265;  92.354;   8.442;  -0.300;  -0.627;   6.672;   6.665;   3.981;  -5.353;  -0.035;;;;;;;;;;;;;;;;;;
2011-07-11T00:19:30.974Z;0;2.1360e+01;0;     0.142;  1559.656;  41530.344; 0;  41501.047;  41530.344;  42288.203;  40728.547;150;   6.673;   4.352;;; 120.391;  92.484;   8.444;  -0.300;  -0.627;   6.674;   6.667;   3.984;  -5.353;  -0.035;;;;;;;;;;;;;;;;;;
2011-07-11T00:19:46.974Z;0;2.1440e+01;0;     0.131;  1559.656;  41609.789; 0;  41580.547;  41609.789;  42367.688;  40808.031;150;   6.675;   4.479;;; 120.517;  92.614;   8.445;  -0.300;  -0.627;   6.676;   6.669;   3.988;  -5.353;  -0.035;;;;;;;;;;;;;;;;;;
2011-07-11T00:20:02.974Z;0;2.0550e+01;0;     0.154;  1552.544;  40738.520; 0;  40708.926;  40738.520;  41492.598;  39940.055;150;   6.678;   4.606;;; 120.643;  92.743;   8.447;  -0.300;  -0.627;   6.678;   6.671;   3.991;  -5.353;  -0.035;;;;;;;;;;;;;;;;;;
2011-07-11T00:20:18.974Z;0;2.1490e+01;0;     0.143;  1552.544;  41653.023; 0;  41624.078;  41653.023;  42407.590;  40855.047;150;   6.680;   4.733;;; 120.769;  92.870;   8.448;  -0.300;  -0.626;   6.680;   6.673;   3.994;  -5.353;  -0.035;;;;;;;;;;;;;;;;;;
2011-07-11T00:20:50.974Z;0;2.0940e+01;0;     0.154;  1552.544;  41121.379; 0;  41092.059;  41121.379;  41875.664;  40323.121;150;   6.684;   4.986;;; 121.021;  93.125;   8.451;  -0.300;  -0.626;   6.684;   6.677;   4.001;  -5.353;  -0.035;;;;;;;;;;;;;;;;;;
2011-07-11T00:21:06.974Z;0;2.0650e+01;0;     0.178;  1545.964;  40839.832; 0;  40810.562;  40839.832;  41590.863;  40044.898;150;   6.686;   5.113;;; 121.147;  93.252;   8.453;  -0.300;  -0.626;   6.686;   6.679;   4.004;  -5.353;  -0.035;;;;;;;;;;;;;;;;;;
2011-07-11T00:21:22.974Z;0;2.0970e+01;0;     0.166;  1545.964;  41147.793; 0;  41118.742;  41147.793;  41898.988;  40353.023;150;   6.688;   5.240;;; 121.273;  93.379;   8.455;  -0.300;  -0.626;   6.688;   6.681;   4.008;  -5.353;  -0.035;;;;;;;;;;;;;;;;;;
2011-07-11T00:21:38.973Z;0;1.8980e+01;0;     0.163;  1545.964;  39148.816; 0;  39118.281;  39148.816;  39898.898;  38352.934;150;   6.690;   5.367;;; 121.399;  93.506;   8.456;  -0.300;  -0.625;   6.690;   6.683;   4.011;  -5.353;  -0.035;;;;;;;;;;;;;;;;;;
2011-07-11T00:22:11.348Z;0;2.2390e+01;0;     0.164;  1526.588;  42522.809; 0;  42495.398;  42522.809;  43265.547;  41738.957;150;   6.694;   5.624;;; 121.654;  93.763;   8.459;  -0.300;  -0.625;   6.694;   6.687;   4.018;  -5.353;  -0.035;;;;;;;;;;;;;;;;;;
2011-07-11T00:22:26.973Z;0;2.0860e+01;0;     0.146;  1526.588;  41037.664; 0;  41009.262;  41037.664;  41779.656;  40253.070;150;   6.696;   5.748;;; 121.778;  93.887;   8.461;  -0.299;  -0.625;   6.696;   6.689;   4.021;  -5.353;  -0.035;;;;;;;;;;;;;;;;;;
2011-07-11T00:22:42.973Z;0;2.0320e+01;0;     0.165;  1526.588;  40512.980; 0;  40484.207;  40512.980;  41254.695;  39728.109;150;   6.698;   5.875;;; 121.904;  94.014;   8.462;  -0.299;  -0.625;   6.698;   6.691;   4.025;  -5.353;  -0.035;;;;;;;;;;;;;;;;;;
2011-07-11T00:22:58.973Z;0;2.0640e+01;0;     0.149;  1526.588;  40820.898; 0;  40792.344;  40820.898;  41562.777;  40036.191;150;   6.700;   6.002;;; 122.030;  94.140;   8.464;  -0.299;  -0.625;   6.700;   6.693;   4.028;  -5.353;  -0.035;;;;;;;;;;;;;;;;;;
2011-07-11T00:23:30.973Z;0;2.0000e+01;0;     0.195;  1534.792;  40184.805; 0;  40155.484;  40184.805;  40930.211;  39395.422;150;   6.704;   6.256;;; 122.282;  94.394;   8.467;  -0.299;  -0.624;   6.704;   6.697;   4.035;  -5.353;  -0.035;;;;;;;;;;;;;;;;;;
2011-07-11T00:23:46.973Z;0;2.1560e+01;0;     0.154;  1534.792;  41726.156; 0;  41697.922;  41726.156;  42472.375;  40937.586;150;   6.706;   6.383;;; 122.408;  94.520;   8.469;  -0.299;  -0.624;   6.706;   6.699;   4.038;  -5.353;  -0.035;;;;;;;;;;;;;;;;;;
2011-07-11T00:24:02.973Z;0;2.0460e+01;0;     0.172;  1536.976;  40643.562; 0;  40614.492;  40643.562;  41390.250;  39853.273;150;   6.708;   6.510;;; 122.535;  94.647;   8.470;  -0.299;  -0.624;   6.708;   6.701;   4.042;  -5.353;  -0.035;;;;;;;;;;;;;;;;;;
2011-07-11T00:24:18.972Z;0;1.9250e+01;0;     0.182;  1536.976;  39427.883; 0;  39397.914;  39427.883;  40173.898;  38636.922;150;   6.710;   6.637;;; 122.661;  94.773;   8.472;  -0.299;  -0.624;   6.710;   6.703;   4.045;  -5.353;  -0.035;;;;;;;;;;;;;;;;;;
2011-07-11T00:24:34.972Z;0;1.7460e+01;0;     0.182;  1536.976;  37554.086; 0;  37522.621;  37554.086;  38298.977;  36762.000;150;   6.712;   6.764;;; 122.787;  94.899;   8.473;  -0.299;  -0.623;   6.712;   6.705;   4.048;  -5.353;  -0.035;;;;;;;;;;;;;;;;;;
2011-07-11T00:24:50.972Z;0;1.5840e+01;0;     0.182;  1536.976;  35767.887; 0;  35734.848;  35767.887;  36511.598;  34974.625;150;   6.714;   6.891;;; 122.913;  95.026;   8.475;  -0.299;  -0.623;   6.714;   6.707;   4.052;  -5.353;  -0.035;;;;;;;;;;;;;;;;;;
2011-07-11T00:25:06.972Z;0;1.9180e+01;0;     0.179;  1547.812;  39358.906; 0;  39328.461;  39358.906;  40109.980;  38562.168;150;   6.716;   7.018;;; 123.040;  95.152;   8.476;  -0.299;  -0.623;   6.716;   6.709;   4.055;  -5.353;  -0.035;;;;;;;;;;;;;;;;;;